[[{"header":{"parameterUnit":"m.s-1","parameterCategory":1,"la1":30.2991,"la2":30.254,"lo1":-89.0895,"lo2":-89.0444,"dy":0.0017,"dx":0.0017,"nx":28,"ny":28,"refTime":"2024-08-20T21:00:00:Z","depth":0,"parameterNumber":2,"parameterNumberName":"U-component_of_WINDS"},"data":[0,0,0,0,0,0,0,0,0,0,0,0,0,0,0,0,0,0,0,0,0,0,0,0,0,0,0,0,0,0,0,0,0,0,0,0,0,0,0,0,0,0,0,0,0,0,0,0,0,0,0,0,0,0,0,0,0,0,-1.9349,-1.9349,0,-1.9342,-1.9342,-1.9342,-1.928,-1.9278,-1.9276,-1.9275,-1.9269,-1.927,-1.9271,0,0,0,0,0,0,0,0,0,0,0,0,0,-1.931,-1.9311,-1.9349,-1.9349,-1.9349,-1.9342,-1.9342,-1.9342,-1.928,-1.9278,-1.9276,-1.9274,-1.9268,-1.927,-1.9271,0,0,0,0,0,0,0,0,0,0,0,0,0,-1.9317,-1.9311,-1.9349,-1.9317,-1.9314,-1.9342,-1.9342,-1.9342,-1.928,-1.9278,-1.9276,-1.9273,-1.9268,-1.9269,-1.9271,-1.933,0,0,-1.9277,-1.9278,0,0,0,0,0,0,0,0,-1.9317,-1.9319,-1.9322,-1.932,-1.9316,-1.9309,-1.9326,-1.9338,-1.9281,-1.9293,-1.9275,-1.9272,-1.9284,-1.9284,-1.9288,-1.933,-1.9329,-1.9277,-1.9279,-1.9279,-1.928,0,0,0,0,0,0,0,-1.9316,-1.9319,-1.9346,-1.9322,-1.9319,-1.9303,-1.9302,-1.9328,-1.9302,-1.9292,-1.9287,-1.9287,-1.9282,-1.9287,-1.9288,-1.9329,-1.9277,-1.9279,-1.928,-1.9281,-1.9419,-1.9421,0,0,0,0,0,0,-1.932,-1.9319,-1.9347,-1.9346,-1.9311,-1.9306,-1.9304,-1.9314,-1.9301,-1.9297,-1.9289,-1.9284,-1.9284,-1.9286,-1.9287,-1.9356,-1.9279,-1.9281,-1.9282,-1.9416,-1.942,-1.9422,0,0,0,0,0,0,-1.932,-1.9323,-1.9347,-1.9331,-1.9333,-1.9309,-1.932,-1.9315,-1.932,-1.9299,-1.9294,-1.9299,-1.9283,-1.9285,-1.932,-1.9355,-1.9282,-1.9284,-1.9413,-1.9417,-1.9421,-1.9494,0,0,0,0,0,0,-1.9319,-1.9324,-1.9345,-1.9332,-1.9334,-1.938,-1.9323,-1.9317,-1.9323,-1.9316,-1.9307,-1.9303,-1.9281,-1.9317,-1.9322,-1.9356,-1.9285,-1.941,-1.9415,-1.942,-1.9488,-1.9499,-1.9509,0,0,0,0,0,-1.9318,-1.9366,-1.9347,-1.9351,-1.9361,-1.9382,-1.9383,-1.9356,-1.9326,-1.9348,-1.9335,-1.9303,-1.935,-1.9322,-1.9326,-1.9362,-1.9408,-1.9414,-1.9419,-1.9483,-1.9497,-1.9509,0,0,0,0,0,0,-1.9385,-1.9364,-1.9342,-1.9388,-1.9387,-1.9371,-1.9399,-1.9372,-1.938,-1.9374,-1.934,-1.9339,-1.938,-1.9373,-1.9342,-1.9418,-1.9373,-1.938,-1.9421,-1.9434,-1.9444,-1.9446,-1.9287,0,0,0,0,0,-1.9404,-1.9423,-1.9404,-1.9446,-1.9447,-1.9423,-1.9431,-1.941,-1.9408,-1.9408,-1.9397,-1.9397,-1.9411,-1.9422,-1.9434,-1.9486,-1.9484,-1.9513,-1.9523,-1.9532,-1.9539,-1.9567,-1.958,-1.9441,-1.9441,-1.9441,0,0,-1.9446,-1.9437,-1.9451,-1.9459,-1.9456,-1.9477,-1.9423,-1.9447,-1.9462,-1.9411,-1.9445,-1.9437,-1.9434,-1.9479,-1.9498,-1.9475,-1.9577,-1.9539,-1.9546,-1.9549,-1.9575,-1.9588,-1.96,-1.9445,-1.9444,-1.9443,0,0,-1.9533,-1.9528,-1.9563,-1.9561,-1.9557,-1.954,-1.9549,-1.9537,-1.953,-1.9563,-1.9525,-1.9543,-1.9568,-1.9568,-1.9571,-1.9658,-1.963,-1.9663,-1.9719,-1.9747,-1.9758,-1.9767,-1.98,-1.9812,-1.9669,-1.9669,-1.9669,0,-1.9586,-1.9615,-1.9584,-1.9611,-1.9616,-1.957,-1.9606,-1.9606,-1.9606,-1.9611,-1.9585,-1.9617,-1.9611,-1.9656,-1.9677,-1.968,-1.969,-1.9665,-1.9759,-1.9768,-1.9777,-1.9807,-1.9819,-1.9673,-1.9673,-1.9673,-1.9672,0,-1.9681,-1.9701,-1.973,-1.9732,-1.974,-1.9771,-1.9745,-1.9757,-1.9736,-1.9722,-1.9756,-1.9748,-1.9758,-1.9767,-1.9746,-1.9809,-1.9795,-1.9764,-1.972,-1.9795,-1.9823,-1.9834,-1.9679,-1.9678,-1.9677,-1.9676,0,0,-1.9811,-1.9795,-1.9806,-1.9807,-1.9799,-1.9815,-1.9843,-1.9853,-1.9865,-1.9866,-1.9891,-1.9913,-1.9885,-1.9888,-1.9867,-1.9891,-1.9962,-1.9858,-1.9857,-1.9879,-2.0033,-2.0057,-2.0072,-1.9942,-1.9945,-1.9946,-2.0034,0,-1.9896,-1.9945,-1.9918,-1.9971,-1.9991,-1.9947,-1.9973,-1.9971,-1.9959,-1.9974,-1.996,-1.9977,-1.9938,-1.994,-1.9962,-1.9949,-1.9993,-1.9942,-1.9966,-1.9968,-1.9971,-2.0086,-2.0112,-2.0195,-2.0044,-2.0046,-2.0047,0,-2.0003,-2.0009,-2.0064,-2.0053,-2.006,-2.0084,-2.0091,-2.0105,-2.0102,-2.0091,-2.0096,-2.0068,-2.0096,-2.005,-2.0089,-2.0055,-2.0063,-2.0058,-2.0061,-2.0064,-2.0014,-2.0094,-2.0221,-2.0234,-2.0064,-2.0063,-2.0062,0,-2.0095,-2.0117,-2.0153,-2.0154,-2.0142,-2.016,-2.0155,-2.015,-2.0157,-2.0163,-2.0168,-2.0177,-2.0183,-2.0191,-2.0167,-2.0135,-2.021,-2.0161,-2.0203,-2.0204,-2.0222,-2.0222,-2.0354,-2.0224,-2.0224,-2.0224,-2.0223,0,-2.0195,-2.0231,-2.0194,-2.0217,-2.0256,-2.0224,-2.0264,-2.0254,-2.025,-2.027,-2.0232,-2.0252,-2.0218,-2.0235,-2.0216,-2.0252,-2.0254,-2.0247,-2.0242,-2.0252,-2.0253,-2.0258,-2.0253,-2.0227,-2.0226,-2.0225,-2.0225,0,-2.0305,-2.0282,-2.0319,-2.0304,-2.0301,-2.0331,-2.0318,-2.0338,-2.0323,-2.0349,-2.0353,-2.033,-2.0347,-2.0323,-2.0338,-2.0326,-2.0376,-2.0361,-2.0377,-2.0374,-2.0418,-2.0415,-2.056,-2.0578,-2.0434,-2.0435,-2.0437,0,-2.0372,-2.0398,-2.0386,-2.0397,-2.0394,-2.0412,-2.042,-2.0389,-2.0399,-2.0397,-2.0418,-2.0432,-2.0442,-2.0472,-2.0457,-2.0469,-2.0455,-2.0505,-2.0457,-2.0466,-2.0458,-2.0458,-2.0461,-2.0516,-2.0517,-2.0519,-2.052,0,-2.0492,-2.0479,-2.0492,-2.0501,-2.0511,-2.0517,-2.0519,-2.053,-2.0498,-2.0511,-2.0528,-2.0536,-2.0551,-2.0566,-2.0573,-2.0569,-2.054,-2.0535,-2.0545,-2.0557,-2.0566,-2.0564,-2.0407,-2.0532,-2.0531,-2.053,-2.0529,-2.0529,-2.0584,-2.0606,-2.0601,-2.0616,-2.0615,-2.0618,-2.0637,-2.0624,-2.0638,-2.0648,-2.0629,-2.0651,-2.0648,-2.0654,-2.0653,-2.0671,-2.0649,-2.0664,-2.0668,-2.0673,-2.0681,-2.0561,-2.0672,-2.0671,-2.0671,-2.0671,-2.067,0,-2.0704,-2.0699,-2.0713,-2.0718,-2.0731,-2.07,-2.0702,-2.0714,-2.0735,-2.0733,-2.0744,-2.0764,-2.0779,-2.0764,-2.0776,-2.0793,-2.078,-2.0797,-2.0797,-2.0797,-2.0699,-2.0689,-2.0808,-2.0808,-2.0808,-2.0808,-2.0808,-2.0807,-2.0769,-2.0805,-2.0792,-2.0827,-2.0821,-2.0843,-2.0846,-2.085,-2.0849,-2.0873,-2.0885,-2.0875,-2.0868,-2.0879,-2.0891,-2.0887,-2.0894,-2.0917,-2.0908,-2.0817,-2.0803,-2.0791,-2.0782,-2.0918,-2.0918,-2.1004,-2.1005,-2.1006]},{"header":{"parameterUnit":"m.s-1","parameterCategory":1,"la1":30.2991,"la2":30.254,"lo1":-89.0895,"lo2":-89.0444,"dy":0.0017,"dx":0.0017,"nx":28,"ny":28,"refTime":"2024-08-20T21:00:00:Z","depth":0,"parameterNumber":3,"parameterNumberName":"V-component_of_WINDS"},"data":[0,0,0,0,0,0,0,0,0,0,0,0,0,0,0,0,0,0,0,0,0,0,0,0,0,0,0,0,0,0,0,0,0,0,0,0,0,0,0,0,0,0,0,0,0,0,0,0,0,0,0,0,0,0,0,0,0,0,-3.4194,-3.4194,0,-3.4193,-3.4193,-3.4193,-3.4154,-3.4153,-3.4152,-3.4151,-3.415,-3.4151,-3.4152,0,0,0,0,0,0,0,0,0,0,0,0,0,-3.4163,-3.4163,-3.4194,-3.4194,-3.4194,-3.4193,-3.4193,-3.4193,-3.4154,-3.4153,-3.4152,-3.4151,-3.415,-3.4151,-3.4152,0,0,0,0,0,0,0,0,0,0,0,0,0,-3.417,-3.4164,-3.4194,-3.4174,-3.4173,-3.4193,-3.4193,-3.4193,-3.4155,-3.4153,-3.4152,-3.415,-3.4149,-3.4151,-3.4152,-3.419,0,0,-3.4156,-3.4157,0,0,0,0,0,0,0,0,-3.417,-3.4171,-3.4177,-3.4176,-3.4174,-3.4172,-3.4181,-3.4192,-3.4155,-3.4161,-3.4151,-3.4149,-3.4158,-3.4159,-3.4162,-3.419,-3.419,-3.4156,-3.4157,-3.4157,-3.4158,0,0,0,0,0,0,0,-3.4169,-3.4171,-3.4193,-3.4177,-3.4175,-3.4166,-3.4165,-3.4183,-3.4168,-3.4161,-3.4158,-3.4158,-3.4157,-3.4161,-3.4162,-3.419,-3.4156,-3.4157,-3.4158,-3.4159,-3.4249,-3.4251,0,0,0,0,0,0,-3.4172,-3.4171,-3.4193,-3.4193,-3.4168,-3.4168,-3.4167,-3.4174,-3.4168,-3.4166,-3.416,-3.4157,-3.4159,-3.416,-3.4161,-3.4206,-3.4157,-3.4159,-3.4159,-3.4248,-3.425,-3.4251,0,0,0,0,0,0,-3.4171,-3.4174,-3.4193,-3.4181,-3.4183,-3.417,-3.4178,-3.4175,-3.4178,-3.4167,-3.4164,-3.4166,-3.4158,-3.416,-3.4183,-3.4205,-3.4159,-3.416,-3.4246,-3.4248,-3.425,-3.4295,0,0,0,0,0,0,-3.417,-3.4174,-3.4188,-3.4182,-3.4184,-3.4215,-3.4179,-3.4176,-3.4181,-3.4177,-3.4172,-3.417,-3.4157,-3.4181,-3.4185,-3.4206,-3.4162,-3.4244,-3.4247,-3.425,-3.4291,-3.4299,-3.4305,0,0,0,0,0,-3.4169,-3.4201,-3.4189,-3.4192,-3.4202,-3.4217,-3.4218,-3.4202,-3.4183,-3.4197,-3.419,-3.417,-3.4202,-3.4184,-3.4187,-3.421,-3.4242,-3.4246,-3.4249,-3.4289,-3.4297,-3.4305,0,0,0,0,0,0,-3.421,-3.42,-3.4187,-3.4217,-3.4218,-3.421,-3.4228,-3.4212,-3.4218,-3.4214,-3.4194,-3.4193,-3.422,-3.4217,-3.4197,-3.4247,-3.4219,-3.4223,-3.4247,-3.4256,-3.4262,-3.4262,-3.4163,0,0,0,0,0,-3.4222,-3.4235,-3.4226,-3.4253,-3.4255,-3.4241,-3.4247,-3.4235,-3.4235,-3.4235,-3.423,-3.4231,-3.4241,-3.4248,-3.4257,-3.4291,-3.4289,-3.4308,-3.4314,-3.432,-3.4324,-3.4342,-3.435,-3.4263,-3.4263,-3.4263,0,0,-3.4248,-3.4244,-3.4254,-3.4262,-3.4261,-3.4275,-3.4242,-3.4258,-3.4268,-3.4238,-3.426,-3.4256,-3.4256,-3.4285,-3.4297,-3.4283,-3.4348,-3.4325,-3.4329,-3.433,-3.4347,-3.4355,-3.4362,-3.4266,-3.4265,-3.4265,0,0,-3.4303,-3.4301,-3.4324,-3.4324,-3.4324,-3.4314,-3.432,-3.4315,-3.4311,-3.4333,-3.431,-3.4322,-3.434,-3.4341,-3.4344,-3.4399,-3.4381,-3.4402,-3.4437,-3.4455,-3.4461,-3.4467,-3.4487,-3.4495,-3.4406,-3.4406,-3.4406,0,-3.4335,-3.4355,-3.4338,-3.4356,-3.436,-3.4333,-3.4356,-3.4357,-3.436,-3.4363,-3.4347,-3.4369,-3.4367,-3.4396,-3.441,-3.4413,-3.4419,-3.4403,-3.4462,-3.4468,-3.4473,-3.4492,-3.4499,-3.4409,-3.4409,-3.4408,-3.4408,0,-3.4395,-3.441,-3.4428,-3.4431,-3.4438,-3.4458,-3.4444,-3.4452,-3.444,-3.4432,-3.4455,-3.4451,-3.4459,-3.4465,-3.4453,-3.4493,-3.4484,-3.4465,-3.4437,-3.4484,-3.4501,-3.4508,-3.4413,-3.4412,-3.4411,-3.441,0,0,-3.4475,-3.4468,-3.4476,-3.4477,-3.4474,-3.4485,-3.4504,-3.4512,-3.452,-3.4522,-3.4538,-3.4554,-3.4537,-3.454,-3.4528,-3.4543,-3.4588,-3.4523,-3.4523,-3.4535,-3.4631,-3.4646,-3.4654,-3.4576,-3.4577,-3.4578,-3.4632,0,-3.4528,-3.456,-3.4545,-3.458,-3.4593,-3.4568,-3.4585,-3.4585,-3.4579,-3.4589,-3.4582,-3.4594,-3.457,-3.4572,-3.4586,-3.4579,-3.4607,-3.4575,-3.459,-3.4591,-3.4591,-3.4663,-3.4678,-3.4729,-3.4638,-3.4639,-3.464,0,-3.4594,-3.4599,-3.4635,-3.4631,-3.4635,-3.4651,-3.4657,-3.4667,-3.4667,-3.4661,-3.4665,-3.4649,-3.4668,-3.464,-3.4665,-3.4644,-3.4649,-3.4647,-3.4649,-3.4649,-3.4619,-3.4666,-3.4744,-3.4752,-3.465,-3.465,-3.4649,0,-3.4649,-3.4665,-3.4689,-3.4691,-3.4686,-3.4697,-3.4696,-3.4694,-3.47,-3.4705,-3.4708,-3.4716,-3.472,-3.4726,-3.4712,-3.4693,-3.474,-3.4711,-3.4736,-3.4736,-3.4747,-3.4746,-3.4827,-3.475,-3.475,-3.475,-3.475,0,-3.4709,-3.4732,-3.4713,-3.4728,-3.4753,-3.4736,-3.4761,-3.4756,-3.4755,-3.4769,-3.4747,-3.476,-3.4741,-3.4752,-3.4742,-3.4765,-3.4767,-3.4763,-3.476,-3.4765,-3.4765,-3.4768,-3.4764,-3.4752,-3.4751,-3.4751,-3.4751,0,-3.4775,-3.4763,-3.4787,-3.4781,-3.478,-3.4799,-3.4793,-3.4806,-3.4798,-3.4815,-3.4818,-3.4806,-3.4818,-3.4805,-3.4816,-3.4809,-3.484,-3.4832,-3.484,-3.4838,-3.4864,-3.4862,-3.4949,-3.496,-3.4876,-3.4877,-3.4878,0,-3.4815,-3.4832,-3.4827,-3.4835,-3.4835,-3.4847,-3.4852,-3.4836,-3.4843,-3.4844,-3.4857,-3.4867,-3.4875,-3.4895,-3.4887,-3.4896,-3.4887,-3.4917,-3.4888,-3.4893,-3.4888,-3.4887,-3.4889,-3.4923,-3.4924,-3.4925,-3.4926,0,-3.4886,-3.488,-3.4889,-3.4896,-3.4904,-3.4909,-3.4912,-3.4919,-3.4902,-3.4911,-3.4923,-3.4928,-3.494,-3.495,-3.4956,-3.4955,-3.4938,-3.4935,-3.4941,-3.4947,-3.4951,-3.4949,-3.4857,-3.4933,-3.4932,-3.4932,-3.4932,-3.4931,-3.494,-3.4954,-3.4954,-3.4964,-3.4965,-3.4969,-3.4981,-3.4975,-3.4984,-3.4992,-3.4982,-3.4997,-3.4997,-3.5003,-3.5003,-3.5015,-3.5002,-3.5011,-3.5013,-3.5016,-3.502,-3.4949,-3.5016,-3.5016,-3.5016,-3.5015,-3.5015,0,-3.5011,-3.5009,-3.5019,-3.5025,-3.5033,-3.5017,-3.5019,-3.5028,-3.5041,-3.5042,-3.505,-3.5064,-3.5074,-3.5067,-3.5076,-3.5086,-3.5079,-3.5089,-3.5088,-3.5088,-3.5031,-3.5025,-3.5095,-3.5095,-3.5095,-3.5095,-3.5095,-3.5095,-3.5049,-3.5072,-3.5065,-3.5088,-3.5086,-3.5101,-3.5104,-3.5107,-3.5108,-3.5125,-3.5133,-3.5128,-3.5126,-3.5134,-3.5143,-3.5141,-3.5145,-3.5158,-3.5153,-3.51,-3.5092,-3.5085,-3.5079,-3.5159,-3.5159,-3.5209,-3.521,-3.521]}]]